FLOCK 4Y-22 (55022 NORAD) Tracking and Keplerian Element Data

This shows tracking and keplerian element data for the satellite.

Feedback or suggestion? Click here.




ElementValue
Catalog55022
NameFLOCK 4Y-22
Epoch Orbit1248
Epoch Day85.11290674
Epoch Year2023
RAAN145.9102
Inclination97.4871
Eccentricity0.0009813
Argument of Perigee290.9302
Mean Anonmoly69.088
Mean Motion15.15614694
Decay Rate0.00031514
L11 55022U 23001P 23085.11290674 .00031514 00000+0 16546-2 0 9995
L22 55022 97.4871 145.9102 0009813 290.9302 69.0880 15.15614694 12488



Live tracking and technical data element details for FLOCK 4Y-22 (NORAD 55022). FLOCK 4Y-22 can be tracked NOW for your location showing map with azimuth and elevation plus other details from your city location.







IsCatalogInMostPopularTable: catalog: 55022, numindb: 8
Update: records affected: 1



GetName: 55022 FLOCK 4Y-22

Hit Count: updated at: Mon, 27 Mar 2023 07:13:48 GMT